sat.trackr.live / text

‹ back to catalog

COLIBRI-S (RS67S)

NORAD 61746 · 2024-199M

PAYLOAD ACTIVE UNKNOWN

§ Identity

Operator
Country
CIS
Launch date
2024-11-04
Launch site
VOSTO
Launch vehicle
Mass (kg)
RCS (m²)

Purposes: comms

External: N2YO · Heavens-Above · Gunter

§ Orbital elements

Epoch: 2026-05-25T04:00:21.360096Z

Period
93.11 min
Inclination
97.3033°
Eccentricity
0.0008674
Mean motion
15.46633336 rev/d
Perigee alt
420.7 km
Apogee alt
432.5 km
Semi-major
6,804.7 km
B*
4.3261e-4
RAAN
18.8253°
Arg perigee
17.8414°
Mean anomaly
342.3139°
Rev number
13,385

§ Raw data

COLIBRI-S (RS67S)1 61746U 24199M   26145.16691389  .00021535  00000+0  43261-3 0  99942 61746  97.3033  18.8253 0008674  17.8414 342.3139 15.46633336133853

JSON: /api/v1/satellites/61746 · /tle

For live sub-satellite position, see the globe view (requires WebGL).

§ Visibility from observer

Set your observer location to see the next 7 days of passes ≥ 10°. The values pass through the URL so the page stays shareable.

No JS? Fill the form by hand. The geolocation button needs JavaScript.

§ Radio — SatNOGS DB

ModeDescriptionDownlinkUplink
CW Mode U - CW Beacon 436.835 MHz
GFSK Mode U - GFSK9k6 - AX.25 Beacon and Telemetry (Geoscan framing) 436.835 MHz
DVB-S2 Mode X - DVB-S2 10.475 GHz

3 transmitters · refreshed weekly from db.satnogs.org